{"data":{"norad_id":68650,"intl_designator":"2026-075Q","name":"QIANFAN-123","alt_names":[],"object_type":"PAYLOAD","status":"ACTIVE","operator":null,"country":"PRC","launch_date":"2026-04-07","launch_site_code":"WSC","launch_vehicle":null,"mission":null,"orbit_class":"UNKNOWN","rcs_meters":null,"size_class":null,"mass_kg":null,"dimensions":null,"purposes":[],"wikipedia_slug":null,"has_3d_model":false,"image_url":null,"decayed_at":null,"tle_current":{"epoch":"2026-09-19T21:20:25.736928Z","epoch_age_seconds":115994,"freshness":"FRESH","line1":"1 68650U 26075Q   26262.88918677  .00000034  00000+0  33647-4 0  9990","line2":"2 68650  88.9861 311.3133 0002091  81.5534 278.5854 13.51020295 22573","mean_motion":13.51020295,"eccentricity":0.0002091,"inclination_deg":88.9861,"raan_deg":311.3133,"arg_perigee_deg":81.5534,"mean_anomaly_deg":278.5854,"bstar":3.3647e-5,"rev_number":2257,"period_min":106.58611164683,"perigee_km":1066.9499154906,"apogee_km":1070.064102015,"semimajor_km":7446.6440087528,"source":"CELESTRAK","updated_at":"2026-09-20T09:00:24.372112Z"}}}